Location: Home
(40.5300°N, 105.0300°W)
Time: 20:53:46
(UTC-06:00)

STARLINK-2715 - Visible Passes

Search period start: 16 October 2021 00:00
Search period end: 26 October 2021 00:00
Orbit: 545 x 549 km, 53.1° (Epoch: 16 October)

Date Brightness Start Highest point End Pass type
(mag) Time Alt. Az. Time Alt. Az. Time Alt. Az.
20 Oct 3.9 06:44:32 10° SW 06:48:37 73° SE 06:52:43 10° NE visible
21 Oct 6.4 05:01:18 10° SSE 05:03:17 13° SE 05:05:17 10° E visible
21 Oct 3.6 06:38:09 10° SW 06:42:16 84° NW 06:46:24 10° NE visible
22 Oct 5.9 04:55:45 17° SSE 04:56:48 18° SE 04:59:39 10° E visible
22 Oct 3.6 06:31:52 10° WSW 06:35:57 64° NW 06:40:02 10° NE visible
23 Oct 5.6 04:50:31 24° SE 04:50:31 24° SE 04:53:42 10° ENE visible
23 Oct 3.9 06:26:10 13° WSW 06:29:38 49° NNW 06:33:39 10° NE visible
24 Oct 5.6 04:45:06 27° E 04:45:06 27° E 04:47:36 10° ENE visible
24 Oct 4.2 06:20:44 18° W 06:23:20 39° NNW 06:27:13 10° NE visible
25 Oct 5.8 04:39:31 24° ENE 04:39:31 24° ENE 04:41:23 10° ENE visible
25 Oct 4.5 06:15:09 21° WNW 06:17:03 32° NNW 06:20:47 10° NE visible
